sat.trackr.live / text

‹ back to catalog

STARLINK-3981

NORAD 52687 · 2022-053AH

PAYLOAD ACTIVE UNKNOWN

§ Identity

Operator
Country
US
Launch date
2022-05-18
Launch site
AFETR
Launch vehicle
Mass (kg)
RCS (m²)

Purposes: comms

External: N2YO · Heavens-Above · Gunter

§ Orbital elements

Epoch: 2026-09-20T04:00:03.000096Z

Period
94.08 min
Inclination
53.1612°
Eccentricity
0.0000888
Mean motion
15.30536600 rev/d
Perigee alt
473.6 km
Apogee alt
474.8 km
Semi-major
6,852.3 km
B*
3.1053e-3
RAAN
348.7061°
Arg perigee
126.0527°
Mean anomaly
183.2504°
Rev number
583

§ Raw data

STARLINK-39811 52687U 22053AH  26263.16670139  .00093752  00000+0  31053-2 0  99912 52687  53.1612 348.7061 0000888 126.0527 183.2504 15.30536600  5832

JSON: /api/v1/satellites/52687 · /tle

For live sub-satellite position, see the globe view (requires WebGL).

§ Visibility from observer

Set your observer location to see the next 7 days of passes ≥ 10°. The values pass through the URL so the page stays shareable.

No JS? Fill the form by hand. The geolocation button needs JavaScript.